MOZHAYETS 4 (RS-22)

Last updated on Mon Sep 15 2025 00:03:09 GMT+0000 (Coordinated Universal Time)

1 27939U 03042A 25257.25474897 .00000938 00000+0 15565-3 0 9990 2 27939 98.3368 69.1061 0012469 66.2335 107.0890 14.72581250174922
UTC large
Height (km)
Speed (km/s)
/
Latitude / Longitude
Inclination (degrees)
Orbital Period (minutes)
Azimuth
Elevation
Range (km)
Doppler Factor

Next 0 passes for location: London (51.5072 / 0.1276)

Sorry there are no passes over London.